Location: Basin
(44.3800°N, 108.0380°W)
Time: 23:37:05
(UTC-06:00)

X-37B - Visible Passes

Search period start: 28 September 2020 00:00
Search period end: 08 October 2020 00:00
Orbit: 386 x 387 km, 45.0° (Epoch: 18 September)

Date Brightness Start Highest point End Pass type
(mag) Time Alt. Az. Time Alt. Az. Time Alt. Az.
01 Oct 2.6 20:14:10 10° SSW 20:15:38 17° SSE 20:15:38 17° SSE visible
02 Oct 3.0 19:17:28 10° SSE 19:18:04 10° SE 19:18:40 10° SE visible
02 Oct 2.7 20:51:05 10° SW 20:52:22 21° SW 20:52:22 21° SW visible
03 Oct 1.7 19:52:52 10° SW 19:55:40 29° SSE 19:56:40 24° ESE visible
03 Oct 4.0 21:28:55 10° W 21:28:57 10° W 21:28:57 10° W visible
04 Oct 0.9 20:30:22 10° WSW 20:33:09 59° SSW 20:33:09 59° SSW visible
05 Oct 1.1 19:31:57 10° SW 19:35:00 45° SSE 19:37:16 16° E visible
05 Oct 3.2 21:08:23 10° W 21:09:32 20° W 21:09:32 20° W visible
06 Oct 0.5 20:09:47 10° W 20:12:58 89° SSW 20:13:35 54° E visible
07 Oct 0.7 19:11:14 10° WSW 19:14:24 68° SSE 19:17:34 10° E visible
07 Oct 2.2 20:47:52 10° W 20:49:52 35° WNW 20:49:52 35° WNW visible
